CAPE
2136 2224 2406 2516 2740 2416 2311 2480 2517 2448 2470 1991 1964 2093 2018 2510 2802 2620 2712 2894 3104 3210 3143 3388 3431 3398 3148 3073 3288 3094 2974 3118 2891 2800 3057 3028 3195 3039 2810 2762 2722 2744
2006 2256 2278 2446 2783 2733 2594 2698 2831 2648 2821 2587 1925 1962 2596 2542 2884 3043 3010 2983 2953 3146 3144 3063 3412 3425 3321 2874 3350 3227 3137 3059 3358 3009 3265 3484 3222 3101 3233 3205 2968 2959
2112 2138 2105 2265 2409 2870 2506 2668 2966 2905 2689 2681 2316 2193 2674 3018 3037 3420 3314 3029 2716 2568 2889 3114 3098 3295 3196 3075 3324 3252 2982 3100 2952 2889 3195 3530 3100 3062 3326 3129 3198 3211
2214 2226 1960 2109 2438 2864 2800 2757 2936 2994 2482 2533 2512 2264 2074 2186 2984 3165 3654 3489 3166 3018 2724 2936 2937 2789 3131 3152 3320 3106 3008 3160 2734 2963 3041 3113 3386 3099 3082 3356 3363 2930
2252 2255 2269 2263 2569 2897 3033 2762 2705 2800 2530 2208 2426 2404 2658 2598 2980 3077 3280 3692 3651 3295 3133 3109 3264 2947 3208 3303 3204 3142 2888 2816 2737 2848 2881 3022 3324 3512 3248 3190 3544 3485
2470 2381 2466 2453 2520 2589 2715 2864 2768 2556 2687 2188 2356 2422 2577 3019 3029 2936 2943 3015 3290 3025 2428 2516 2817 2893 2926 3394 3294 3182 2734 2559 2501 2926 2689 2932 3120 3202 3254 3331 3648 3615
2503 2561 2595 2558 2558 2553 2805 2905 2809 2640 2702 2414 2493 2475 2496 2889 3210 2986 2754 3007 2772 2756 2395 2254 2692 2678 2874 3184 3439 3481 3306 3263 2848 2965 2939 2820 3093 3285 3166 3549 3913 3904
2673 2551 2633 2737 2667 2841 2787 2859 2863 2973 2797 2697 2470 2734 2746 2725 3081 3060 2952 2875 2876 2888 3008 2892 3056 3455 2906 3042 3350 3561 3520 3265 3201 3172 3024 2972 3088 3176 3407 3510 3835 4138
2904 2871 2877 2889 2927 2774 2669 2721 2917 2984 2724 2789 2503 2521 2873 2774 2786 2837 3065 3256 3138 3108 3324 3332 3396 3598 3313 2933 3222 3707 3856 3147 2996 3315 3315 3214 3175 3259 3499 3690 3793 4131
3210 3128 3084 3104 2840 2666 2690 2681 2573 2742 2788 2768 2684 2426 2629 2921 2714 2629 3044 3403 3555 3407 3428 3629 3658 3563 3505 3331 3399 3680 3791 3722 3295 3391 3614 3518 3436 3428 3467 3624 3729 4010
3258 3068 3046 3010 2807 2634 2670 2610 2455 2494 2758 2784 2740 2430 2341 2689 2886 2841 2992 3308 3530 3570 3542 3622 3712 3717 3615 3194 3176 3493 3610 3482 3562 3625 3718 3728 3582 3623 3539 3622 3767 3774
3424 3128 2990 3034 2901 2706 2580 2538 2414 2416 2635 2821 2724 2630 2329 2283 2888 2978 2837 3264 3539 3592 3598 3761 3809 3759 3818 3628 2927 3109 3508 3456 3388 3692 3683 3887 3815 3521 3667 3884 3757 3872
3438 3116 3065 2944 3090 2766 2586 2563 2474 2385 2423 2665 2778 2653 2441 2323 2512 3012 3051 3134 3544 3608 3481 3702 3893 3854 3971 3975 3516 3063 3206 3670 3290 3300 3471 3689 3782 3491 3225 3389 3751 3863
3516 3440 3042 3132 3121 3237 2978 2695 2607 2459 2502 2628 2867 2757 2448 2364 2357 2658 3111 3146 3393 3579 3508 3456 3843 3988 4063 4122 3996 3484 3126 3518 3771 3279 3115 3417 3444 3452 3219 2985 3193 3474
3643 3510 3316 3273 3281 3416 3241 2956 2874 2836 2794 2841 2972 2870 2535 2390 2400 2381 2851 3172 3228 3366 3424 3315 3428 3820 3888 4017 4011 3981 3593 3258 3519 3651 3254 2974 3152 3206 3346 3366 2855 2642
3732 3681 3572 3447 3445 3463 3500 3281 3106 3111 2980 2951 2972 2999 2905 2744 2621 2576 2620 2975 3266 3398 3430 3401 3319 3532 3628 3228 3458 3912 3919 3217 3408 3650 3691 3306 3356 3286 2955 3016 3159 3049
3827 3730 3656 3587 3571 3600 3664 3584 3345 3301 3243 3209 3212 3246 3172 3148 3000 2816 2662 2739 3070 3320 3457 3394 3445 3373 3009 2967 2884 3040 3578 3944 3634 3758 4068 4024 3692 3877 3678 3043 2945 3158
3892 3857 3787 3721 3661 3708 3848 3699 3592 3493 3477 3446 3352 3381 3421 3274 3171 3103 3110 2825 2844 3122 3263 3380 3498 3075 2936 2774 2612 2554 2795 3279 3596 3712 3658 3847 4060 3606 3698 3558 3304 3059
3953 3905 3811 3837 3898 3875 3920 3820 3690 3594 3584 3556 3373 3416 3486 3495 3455 3309 3262 3138 2907 3076 3079 3190 3381 3024 2806 2615 2475 2320 2171 2280 2699 3128 3170 3595 3817 3912 3822 3782 3796 3800
4003 3934 3970 3922 3949 3935 3954 3932 3887 3796 3711 3632 3537 3586 3584 3619 3403 3450 3413 3426 3279 3168 3173 3094 3119 2715 2667 2507 2324 2193 2096 2010 2637 2612 2826 2989 3355 3697 3845 4018 4116 4019
3980 3971 3993 4000 3991 3982 3938 3985 3889 3934 3805 3656 3472 3500 3622 3662 3628 3569 3522 3618 3516 3303 3149 3071 2887 2488 2511 2463 2284 2074 1939 1858 2606 2631 2686 2906 3168 3458 3787 3954 4185 4294
3957 3963 3971 3964 3995 3992 3927 3884 3929 3903 3908 3697 3419 3348 3433 3514 3606 3468 3522 3534 3491 3426 3068 3102 2982 2451 2423 2356 2286 2144 1952 1769 2416 2763 2872 2925 3135 3403 3589 3934 4068 4171
3653 3685 3860 3845 3883 3850 3818 3818 3864 3837 3825 3759 3561 3345 3267 3363 3498 3399 3439 3370 3421 3449 3437 3294 3262 2912 2432 2298 2202 2117 1986 2046 2509 2742 2912 3116 3249 3394 3661 3830 4020 4299
3611 3653 3765 3831 3950 3870 3817 3731 3732 3815 3811 3697 3585 3304 2971 3096 3314 3539 3516 3397 3279 3370 3298 3529 3407 3139 2696 2409 2195 2033 1939 2413 2775 2853 3033 3207 3392 3497 3660 3747 3971 3885
3585 3597 3720 3774 3835 3805 3738 3713 3744 3759 3656 3614 3518 3398 3135 3142 3141 3309 3384 3409 3288 3188 3002 3165 3438 3211 2826 2611 2326 2098 1931 2598 2833 3040 3132 3313 3422 3553 3732 3822 3946 3876
3456 3660 3735 3693 3830 3788 3824 3724 3665 3572 3632 3678 3610 3400 3301 3184 3094 3163 3331 3406 3347 3224 3173 3031 3077 3583 3035 2726 2514 2294 2104 2406 2969 3121 3259 3377 3508 3500 3803 3930 3959 4172
Wind_Speed
10 12 12 11 11 11 10 10 10 10 10 10 10 11 13 14 14 15 14 13 13 14 14 14 15 15 14 14 13 12 11 10 9 6 5 4 2 2 2 3 4 5
10 12 14 13 13 12 12 11 11 11 10 9 11 13 14 14 13 12 12 11 11 11 11 11 11 12 12 11 10 11 10 10 10 8 7 7 5 3 3 3 4 5
11 12 12 11 12 11 10 11 11 11 10 9 11 13 14 13 12 10 9 9 9 9 8 8 9 8 8 8 7 7 7 7 8 8 8 8 8 7 4 2 2 2
12 12 12 12 13 13 12 12 11 11 10 10 12 13 13 13 11 9 8 6 6 6 6 5 6 6 6 6 5 5 5 5 5 5 7 7 9 10 9 5 3 2
12 13 14 14 14 14 13 12 10 10 9 11 12 13 12 12 10 9 7 5 4 3 2 3 3 4 3 3 4 3 3 4 5 5 5 7 8 9 10 9 7 4
15 16 15 15 15 13 14 13 12 12 11 10 12 12 11 10 9 8 6 5 3 1 1 2 2 2 3 3 3 2 3 3 5 7 6 6 6 8 8 9 10 8
16 16 14 15 14 14 15 15 15 14 13 13 13 13 12 10 9 7 6 5 3 3 2 3 2 2 2 2 2 3 3 4 4 6 6 6 6 6 6 8 9 9
17 18 17 17 15 15 15 16 16 16 15 14 13 13 12 11 9 9 7 5 4 4 5 5 5 4 2 3 2 3 4 5 6 6 6 6 6 6 5 4 6 7
20 20 19 17 15 17 15 16 17 16 16 15 14 14 13 12 11 10 9 7 6 6 7 6 6 5 4 3 3 3 4 4 6 8 8 7 7 7 5 4 4 5
22 21 19 18 16 18 16 16 18 18 17 15 15 15 14 14 12 11 10 9 8 8 8 7 7 6 5 4 4 4 4 4 5 7 8 7 7 7 6 5 5 4
22 21 20 19 18 19 16 17 17 18 19 16 16 15 14 15 14 12 11 10 10 9 9 8 7 6 5 5 5 5 5 5 6 7 8 8 7 8 6 5 5 5
22 21 19 19 19 19 18 18 19 18 19 19 16 15 15 15 14 14 13 11 11 11 10 9 8 7 6 5 5 6 7 6 7 7 8 9 8 8 8 7 7 6
22 21 21 20 21 21 21 21 20 19 19 19 18 16 16 15 14 14 14 13 13 12 10 10 9 7 7 6 6 6 7 8 8 9 9 9 9 8 8 8 8 7
22 22 22 22 23 24 23 22 22 22 21 22 20 18 16 15 15 15 15 15 14 13 11 11 10 8 7 7 7 8 8 9 10 9 10 10 9 9 8 8 8 8
24 25 25 24 24 25 24 23 24 24 25 24 22 20 20 18 17 16 16 15 15 14 12 11 10 9 9 9 10 10 10 9 10 10 10 10 10 9 9 9 8 8
26 27 27 26 25 24 24 25 25 26 26 24 22 21 22 21 20 18 17 17 17 15 14 13 11 11 12 12 12 12 11 10 10 10 10 10 10 10 9 9 9 8
28 27 27 26 25 25 26 25 26 27 27 26 25 24 23 23 22 20 18 18 17 16 14 13 12 12 15 17 15 12 12 11 11 11 11 10 10 10 9 10 10 10
28 27 26 26 26 25 26 25 26 27 26 26 25 25 25 24 22 21 20 19 19 16 14 13 12 14 19 18 17 16 13 11 11 11 11 10 11 10 11 11 11 11
28 27 26 26 26 26 27 27 25 25 25 25 24 25 26 23 22 22 21 21 19 16 14 14 13 18 20 19 18 18 16 12 10 10 10 10 11 11 10 12 13 13
27 26 26 25 26 26 26 25 24 23 23 24 25 26 24 23 22 22 22 21 19 17 16 15 13 21 21 20 19 18 17 15 10 9 9 9 10 11 11 12 13 13
26 25 25 25 25 25 25 23 22 23 23 24 24 24 23 23 22 22 22 20 19 17 16 15 14 20 22 21 20 20 19 17 11 10 9 9 10 10 10 11 13 14
26 25 25 25 24 23 22 21 21 22 22 23 23 23 23 24 23 22 20 19 17 16 15 14 14 20 23 21 21 20 22 17 13 11 10 10 10 10 10 11 12 12
25 24 24 23 23 21 19 19 21 21 22 24 22 21 22 22 22 21 20 18 17 17 15 15 15 20 24 23 22 24 23 17 15 13 12 11 10 11 11 11 12 13
26 25 24 23 22 20 19 19 20 21 22 22 20 20 19 20 21 21 20 18 17 16 16 16 16 21 25 24 24 26 23 18 17 15 13 13 12 12 12 11 11 13
26 25 24 22 20 19 19 19 19 20 21 21 20 20 19 20 20 20 19 19 17 16 18 16 15 20 27 25 26 27 23 19 18 16 15 14 14 14 13 13 12 15
27 25 23 21 19 19 19 19 20 20 19 19 19 19 19 19 19 18 17 18 18 16 17 15 15 17 25 26 27 27 25 21 19 18 15 14 15 15 16 14 14 13
Wind_Direction
156 162 170 167 170 172 174 172 172 170 168 159 149 139 130 129 122 117 111 105 98 93 87 86 83 82 82 81 81 85 87 82 83 74 72 81 99 117 136 132 134 134
159 168 177 173 174 179 181 182 180 178 176 159 147 145 143 137 130 123 115 109 103 97 92 85 82 79 77 77 71 73 75 74 71 69 66 60 70 82 109 118 129 145
170 174 173 171 176 179 185 190 189 186 179 157 146 147 151 148 140 135 127 117 113 105 95 88 81 76 73 70 63 61 57 57 61 63 58 59 62 61 72 87 131 148
176 179 180 177 179 184 190 195 195 192 180 166 154 154 155 159 158 149 146 136 133 123 110 91 84 76 66 62 54 56 41 34 36 43 46 46 49 55 55 59 95 155
182 186 188 188 186 185 193 194 196 197 185 175 169 167 171 170 172 168 169 170 159 136 116 89 70 71 53 52 39 41 19 17 1 5 17 22 25 31 42 44 46 68
193 194 196 193 192 186 188 196 195 195 194 186 179 181 183 186 181 180 186 187 194 195 69 19 14 22 25 14 17 6 356 356 335 338 348 358 7 7 16 22 30 38
209 205 202 200 196 193 193 197 198 197 199 192 192 187 193 197 198 198 200 202 205 239 284 290 300 315 313 326 337 338 325 325 311 315 325 330 336 355 5 6 13 23
222 214 212 209 204 203 200 200 200 204 204 200 193 197 199 201 209 214 217 226 237 260 268 278 284 290 296 287 306 324 330 302 306 312 315 320 316 328 348 351 351 5
233 225 222 221 215 210 205 203 205 208 209 205 199 202 205 204 214 218 228 238 246 257 268 270 275 279 271 270 283 316 324 311 299 306 312 313 311 315 329 327 330 339
239 234 234 230 223 215 211 206 208 211 213 209 207 203 208 214 214 221 234 243 252 258 261 261 269 271 271 281 300 314 318 311 300 296 301 304 301 304 315 304 303 313
244 240 237 236 232 224 219 213 211 214 216 216 213 206 210 219 222 225 236 247 250 257 258 260 265 272 280 288 298 308 319 312 300 294 295 297 293 291 292 286 285 296
246 243 242 242 239 234 229 221 217 216 220 221 217 215 216 220 228 232 239 250 252 253 255 259 261 267 278 290 309 312 307 305 297 291 290 290 290 289 290 284 280 292
247 246 243 242 242 239 234 228 224 223 224 225 223 220 224 226 232 238 241 247 252 252 255 259 264 269 274 288 300 301 300 300 298 296 290 284 286 288 288 286 287 290
245 244 244 242 241 240 238 234 230 227 227 226 226 225 226 231 235 243 245 246 251 255 255 257 262 265 273 281 287 290 291 297 297 295 295 293 289 288 288 287 287 291
246 242 239 240 241 242 241 238 236 233 232 230 229 227 227 232 236 241 248 249 251 253 256 256 257 260 262 274 281 289 290 297 302 302 300 297 295 294 293 290 285 283
251 244 241 240 241 244 244 243 240 238 236 235 234 231 231 232 236 241 246 252 252 254 254 253 251 247 263 288 285 279 289 286 290 294 298 298 297 295 292 291 288 280
252 250 246 244 243 242 243 244 244 241 239 238 235 235 235 237 238 244 248 250 254 253 255 252 249 246 277 289 296 291 282 285 288 288 294 297 297 295 288 283 280 280
255 255 252 249 245 245 245 245 243 243 242 240 239 240 239 240 243 246 249 251 251 253 253 252 248 258 280 292 299 302 294 285 283 285 288 293 292 293 287 282 281 276
257 258 257 252 249 247 245 244 244 244 244 244 244 242 242 243 245 249 252 253 253 254 251 251 245 267 283 294 299 303 307 303 285 284 288 291 290 290 286 281 277 274
260 260 258 255 252 249 247 247 247 246 245 243 241 242 243 245 248 251 252 255 256 255 251 245 243 268 287 293 297 301 303 301 291 293 292 290 289 288 283 282 280 274
262 261 259 256 254 252 250 250 250 246 247 244 242 243 244 244 246 250 252 255 257 257 254 251 245 269 284 294 296 298 299 296 293 292 289 287 286 288 284 280 278 276
264 261 259 257 255 254 253 253 251 251 251 248 244 242 242 243 246 248 254 257 258 258 256 254 250 274 280 289 294 295 295 283 291 293 291 286 284 284 283 281 282 279
262 260 259 258 255 255 254 253 252 252 251 249 248 245 246 247 249 251 251 254 259 260 260 253 249 267 282 288 292 295 287 282 287 286 289 293 287 284 283 285 286 285
261 260 260 259 257 257 255 251 251 249 252 252 252 250 249 249 250 249 252 253 258 262 263 258 253 268 285 290 294 297 296 289 285 286 290 290 286 283 279 280 287 296
260 258 258 259 259 258 254 254 253 251 250 250 250 249 247 247 249 249 251 254 258 262 265 267 259 267 286 293 297 300 298 287 286 287 292 292 287 281 281 280 281 287
258 256 255 257 258 256 254 253 251 250 253 254 251 249 250 250 253 252 256 257 259 264 264 271 268 264 281 297 298 301 306 289 285 289 292 293 286 279 276 280 281 279